EA1AML-1 Vega de Espinareda ES current weather conditions

sailwx.info

Wind from 193 at 1 knots gusting 2

Air temperature 13.9° C
Dewpoint 13.7° C

Last reported at 2014-Oct-24 19:49 UTC.
Time now 2014-Oct-24 20:34 UTC

Location: N 42°43' W 006°39'.
View on Google Maps.

See reports from other nearby stations

  
Tides and Currents Weather Stations Pressure Air Temp Water Temp Dewpoint Dewpoint Depression Visibility Wind Speed Wind Dir Waves Ship Positions
date/time (UTC)wind fromknots sea level pressurealtimeterstation pressurevisibilityair tempwater tempwave heightnotes
2014-Oct-24 19:49 193 1 gusting 2 13.9
2014-Oct-24 19:43 172 1 gusting 2 13.9
2014-Oct-24 19:31 198 0 gusting 2 14.4
2014-Oct-24 19:26 221 14.4
2014-Oct-24 19:20 203 15.0
2014-Oct-24 19:13 184 2 gusting 3 15.0
2014-Oct-24 19:01 191 15.6
2014-Oct-24 18:55 206 0 gusting 2 15.6
2014-Oct-24 18:49 192 15.6
2014-Oct-24 18:38 189 16.1
2014-Oct-24 18:32 196 16.1
2014-Oct-24 18:25 194 0 gusting 4 16.7
2014-Oct-24 18:13 200 3 gusting 5 16.7
2014-Oct-24 18:08 214 1 gusting 3 17.8
2014-Oct-24 18:01 189 1 gusting 3 17.8
2014-Oct-24 17:55 190 2 gusting 3 17.8
2014-Oct-24 17:49 216 0 gusting 2 18.3
2014-Oct-24 17:43 185 18.9
2014-Oct-24 17:37 247 0 gusting 2 18.9
2014-Oct-24 17:33 284 19.4
2014-Oct-24 17:26 263 19.4
2014-Oct-24 17:19 240 19.4
2014-Oct-24 17:14 255 19.4
2014-Oct-24 17:07 269 19.4
2014-Oct-24 17:02 285 19.4
2014-Oct-24 16:55 302 20.0
2014-Oct-24 16:49 306 0 gusting 2 20.0
2014-Oct-24 16:43 305 20.0
2014-Oct-24 16:39 287 2 gusting 3 20.0
2014-Oct-24 16:32 292 1 gusting 3 20.0
2014-Oct-24 16:26 301 1 gusting 3 20.0
2014-Oct-24 16:21 294 0 gusting 2 20.0
2014-Oct-24 16:14 332 0 gusting 3 20.0
2014-Oct-24 16:07 355 0 gusting 3 20.6
2014-Oct-24 16:01 307 0 gusting 3 20.6
2014-Oct-24 15:56 296 20.6
2014-Oct-24 15:49 308 20.6
2014-Oct-24 15:43 324 20.6
2014-Oct-24 15:38 325 20.6
2014-Oct-24 15:25 327 2 gusting 4 20.6
2014-Oct-24 15:21 323 1 gusting 4 20.6
2014-Oct-24 15:13 318 0 gusting 2 21.1
2014-Oct-24 15:07 322 21.1
2014-Oct-24 15:01 322 0 gusting 2 21.1
2014-Oct-24 14:55 343 0 gusting 3 21.1
2014-Oct-24 14:19 344 1 gusting 4 21.1
2014-Oct-24 14:13 344 2 gusting 5 21.1
2014-Oct-24 14:07 350 2 gusting 5 21.1
2014-Oct-24 13:55 005 2 gusting 5 21.1
2014-Oct-24 13:50 353 1 gusting 5 21.1
2014-Oct-24 13:43 348 2 gusting 4 21.1
2014-Oct-24 13:37 355 1 gusting 3 20.6
2014-Oct-24 13:32 003 1 gusting 3 20.6
2014-Oct-24 13:20 356 1 gusting 4 20.0
2014-Oct-24 13:08 347 20.0
2014-Oct-24 13:01 356 0 gusting 3 19.4
2014-Oct-24 12:55 001 2 gusting 3 19.4
2014-Oct-24 12:44 011 0 gusting 2 18.9
2014-Oct-24 12:37 014 18.9
2014-Oct-24 12:32 001 18.9
2014-Oct-24 12:25 017 1 gusting 2 18.3
2014-Oct-24 12:19 025 18.3
2014-Oct-24 12:14 003 17.8
2014-Oct-24 12:08 001 0 gusting 3 17.2
2014-Oct-24 12:01 001 0 gusting 2 17.2
2014-Oct-24 11:55 013 1 gusting 2 17.2
2014-Oct-24 11:49 016 16.7
2014-Oct-24 11:44 348 16.7
2014-Oct-24 11:38 008 16.7
2014-Oct-24 11:31 055 16.7
2014-Oct-24 11:26 045 16.7
2014-Oct-24 11:19 045 16.1
2014-Oct-24 11:08 270 15.6
2014-Oct-24 11:02 320 15.6
2014-Oct-24 10:56 003 15.6
2014-Oct-24 10:50 018 15.6
2014-Oct-24 10:38 135 15.6
2014-Oct-24 10:31 130 15.0
2014-Oct-24 10:26 078 15.0
2014-Oct-24 10:19 045 14.4
2014-Oct-24 10:13 044 13.9
2014-Oct-24 10:07 022 13.9
2014-Oct-24 10:01 018 13.3
2014-Oct-24 09:55 007 13.3
2014-Oct-24 09:49 359 12.8
2014-Oct-24 09:43 014 12.8
2014-Oct-24 09:38 013 12.8
2014-Oct-24 09:32 029 12.2
2014-Oct-24 09:25 139 12.2
2014-Oct-24 09:19 12.2
2014-Oct-24 09:14 045 11.7
2014-Oct-24 09:07 045 11.7
2014-Oct-24 09:02 004 11.7
2014-Oct-24 08:56 002 11.1
2014-Oct-24 08:55 002 11.1
2014-Oct-24 08:49 035 11.7
2014-Oct-24 08:43 043 11.1
2014-Oct-24 08:37 323 11.1
2014-Oct-24 08:31 181 11.1
2014-Oct-24 08:25 189 10.6
2014-Oct-24 08:19 255 10.6
2014-Oct-24 08:13 314 10.6
2014-Oct-24 08:08 314 10.0
2014-Oct-24 08:01 314 10.0
2014-Oct-24 07:56 314 10.0
2014-Oct-24 07:50 10.0
2014-Oct-24 07:43 10.0
2014-Oct-24 07:37 196 10.0
2014-Oct-24 07:32 173 10.0
2014-Oct-24 07:26 148 10.0
2014-Oct-24 07:19 10.0
2014-Oct-24 07:14 10.0
2014-Oct-24 07:08 225 10.0
2014-Oct-24 07:02 207 10.0
2014-Oct-24 06:56 005 10.0
2014-Oct-24 06:49 001 0 gusting 1 10.0
2014-Oct-24 06:43 10.0
2014-Oct-24 06:37 181 10.0
2014-Oct-24 06:31 329 10.0
2014-Oct-24 06:26 259 10.0
2014-Oct-24 06:19 199 1 gusting 3 10.0
2014-Oct-24 06:13 167 10.0
2014-Oct-24 06:08 190 2 gusting 3 9.4
2014-Oct-24 06:01 220 2 gusting 3 9.4
2014-Oct-24 05:50 336 9.4
2014-Oct-24 05:44 281 9.4
2014-Oct-24 05:38 056 9.4
2014-Oct-24 05:31 166 9.4
2014-Oct-24 05:26 192 9.4
2014-Oct-24 05:20 312 9.4
2014-Oct-24 05:13 115 9.4
2014-Oct-24 05:07 142 9.4
2014-Oct-24 05:02 152 9.4
2014-Oct-24 04:56 280 9.4
2014-Oct-24 04:50 311 9.4
2014-Oct-24 04:43 184 10.0
2014-Oct-24 04:38 181 1 gusting 4 10.0
2014-Oct-24 04:31 181 10.0
2014-Oct-24 04:25 225 10.0
2014-Oct-24 04:19 225 10.0
2014-Oct-24 04:13 9.4
2014-Oct-24 04:07 9.4
2014-Oct-24 04:02 9.4
2014-Oct-24 03:57 9.4
2014-Oct-24 03:50 135 10.0
2014-Oct-24 03:43 153 10.0
2014-Oct-24 03:37 190 10.0
2014-Oct-24 03:32 225 10.0
2014-Oct-24 03:26 237 9.4
2014-Oct-24 03:25 237 9.4
2014-Oct-24 03:19 295 9.4
2014-Oct-24 03:13 344 9.4
2014-Oct-24 03:07 10.0
2014-Oct-24 03:02 186 10.0
2014-Oct-24 02:56 217 9.4
2014-Oct-24 02:50 312 9.4
2014-Oct-24 02:43 040 9.4
2014-Oct-24 02:38 181 10.0
2014-Oct-24 02:32 10.0
2014-Oct-24 02:25 10.0
2014-Oct-24 02:19 10.0
2014-Oct-24 02:13 10.0
2014-Oct-24 02:08 10.0
2014-Oct-24 02:02 10.0
2014-Oct-24 01:55 225 10.0
2014-Oct-24 01:50 212 10.0
2014-Oct-24 01:43 10.0
2014-Oct-24 01:38 10.0
2014-Oct-24 01:31 120 10.0
2014-Oct-24 01:19 10.0
2014-Oct-24 01:13 10.0
2014-Oct-24 01:07 10.0
2014-Oct-24 01:02 179 10.0
2014-Oct-24 00:56 181 10.0
2014-Oct-24 00:49 156 9.4
2014-Oct-24 00:43 116 9.4
2014-Oct-24 00:38 144 10.0
2014-Oct-24 00:33 191 10.0
2014-Oct-24 00:26 314 10.0
2014-Oct-24 00:19 202 9.4
2014-Oct-24 00:13 158 10.0
2014-Oct-24 00:07 152 10.0
2014-Oct-24 00:01 174 10.0
2014-Oct-23 23:55 185 10.0
2014-Oct-23 23:50 195 10.0
2014-Oct-23 23:43 10.0
2014-Oct-23 23:40 168 10.0
2014-Oct-23 23:32 155 10.0
2014-Oct-23 23:26 181 10.6
2014-Oct-23 23:20 181 10.6
2014-Oct-23 23:14 181 10.6
2014-Oct-23 23:08 181 10.6
2014-Oct-23 23:01 178 10.6
2014-Oct-23 22:55 176 10.6
2014-Oct-23 22:49 178 10.6
2014-Oct-23 22:43 157 10.6
2014-Oct-23 22:37 140 10.6
2014-Oct-23 22:32 181 11.1
2014-Oct-23 22:25 181 11.1
2014-Oct-23 22:20 176 11.1
2014-Oct-23 22:13 135 11.1
2014-Oct-23 22:08 11.1
2014-Oct-23 22:01 11.1
2014-Oct-23 21:56 181 11.1
2014-Oct-23 21:49 181 11.1
2014-Oct-23 21:44 179 11.1
2014-Oct-23 21:40 200 11.7
2014-Oct-23 21:32 195 11.7
2014-Oct-23 21:27 181 11.7
2014-Oct-23 21:19 181 11.7
2014-Oct-23 21:13 11.7
2014-Oct-23 21:08 181 12.2
2014-Oct-23 21:01 204 12.2
2014-Oct-23 20:55 190 12.2
2014-Oct-23 20:50 159 12.2
2014-Oct-23 20:43 183 12.2
2014-Oct-23 20:37 225 12.8
2014-Oct-23 20:31 225 12.8
2014-Oct-23 20:25 223 12.8
2014-Oct-23 20:19 199 12.8
2014-Oct-23 20:13 172 13.3
2014-Oct-23 20:01 090 13.3
2014-Oct-23 19:56 195 13.9
2014-Oct-23 19:49 192 0 gusting 2 13.3
2014-Oct-23 19:43 200 13.9
2014-Oct-23 19:37 195 13.9
2014-Oct-23 19:31 192 1 gusting 2 13.9
2014-Oct-23 19:25 183 14.4
2014-Oct-23 19:20 197 14.4
2014-Oct-23 19:14 208 0 gusting 2 14.4
2014-Oct-23 19:08 221 0 gusting 2 15.0
2014-Oct-23 19:02 211 0 gusting 2 15.0
2014-Oct-23 18:55 200 15.0
2014-Oct-23 18:50 187 2 gusting 4 15.0
2014-Oct-23 18:25 208 0 gusting 3 16.1
2014-Oct-23 18:20 206 2 gusting 4 16.1
2014-Oct-23 18:13 192 0 gusting 3 16.7
2014-Oct-23 18:08 181 2 gusting 4 17.8
2014-Oct-23 18:01 182 2 gusting 4 17.8
2014-Oct-23 17:56 187 2 gusting 4 18.3
2014-Oct-23 17:49 197 18.3
2014-Oct-23 17:43 215 18.9
2014-Oct-23 17:37 225 19.4
2014-Oct-23 17:31 225 19.4
2014-Oct-23 17:26 20.0
2014-Oct-23 17:25 20.0
2014-Oct-23 17:19 273 20.6
2014-Oct-23 17:13 271 20.6
2014-Oct-23 17:08 255 21.1
2014-Oct-23 17:02 243 21.1
2014-Oct-23 16:56 293 21.1
2014-Oct-23 16:50 308 21.1
2014-Oct-23 16:43 276 0 gusting 2 21.1
2014-Oct-23 16:37 284 21.7
2014-Oct-23 16:32 295 1 gusting 4 21.7
2014-Oct-23 16:25 289 0 gusting 4 21.7
2014-Oct-23 16:19 298 1 gusting 3 21.7
2014-Oct-23 16:14 305 1 gusting 3 22.2
2014-Oct-23 16:08 316 1 gusting 3 22.8
2014-Oct-23 16:01 313 1 gusting 3 22.8
2014-Oct-23 15:56 313 1 gusting 2 22.8
2014-Oct-23 15:55 313 1 gusting 2 22.8
2014-Oct-23 15:49 325 0 gusting 2 22.8
2014-Oct-23 15:43 322 0 gusting 2 22.8
2014-Oct-23 15:37 328 0 gusting 2 22.8
2014-Oct-23 15:32 333 23.3
2014-Oct-23 15:25 339 0 gusting 3 23.3
2014-Oct-23 15:20 334 1 gusting 3 23.3
2014-Oct-23 15:13 337 0 gusting 3 23.3
2014-Oct-23 15:08 320 0 gusting 3 23.3
2014-Oct-23 15:02 318 0 gusting 3 22.8
2014-Oct-23 14:56 307 0 gusting 3 22.8
2014-Oct-23 14:50 288 0 gusting 3 22.8
2014-Oct-23 14:43 291 0 gusting 2 22.8
2014-Oct-23 14:37 310 22.8
2014-Oct-23 14:32 329 22.8
2014-Oct-23 14:25 350 22.2
2014-Oct-23 14:20 345 22.2
2014-Oct-23 14:13 048 22.2
2014-Oct-23 14:08 080 22.2
2014-Oct-23 14:02 002 1 gusting 6 22.2
2014-Oct-23 13:56 353 2 gusting 5 22.2
2014-Oct-23 13:50 351 2 gusting 5 22.2
2014-Oct-23 13:44 333 0 gusting 4 22.2
2014-Oct-23 13:38 309 1 gusting 3 22.2
2014-Oct-23 13:31 328 0 gusting 3 22.2
2014-Oct-23 13:26 313 0 gusting 3 22.2
2014-Oct-23 13:19 309 0 gusting 4 22.2
2014-Oct-23 13:13 320 2 gusting 3 22.2
2014-Oct-23 13:09 348 0 gusting 2 22.2
2014-Oct-23 12:50 333 0 gusting 2 20.6
2014-Oct-23 12:43 004 20.6
2014-Oct-23 12:37 350 0 gusting 2 20.0
2014-Oct-23 12:32 342 20.0
2014-Oct-23 12:25 354 20.0
2014-Oct-23 12:13 349 19.4
2014-Oct-23 12:07 008 19.4
2014-Oct-23 12:02 008 19.4
2014-Oct-23 11:56 002 0 gusting 2 19.4
2014-Oct-23 11:50 002 18.9
2014-Oct-23 11:43 065 18.3
2014-Oct-23 11:37 007 18.3
2014-Oct-23 11:31 357 17.8
2014-Oct-23 11:25 045 17.8
2014-Oct-23 11:08 080 16.7
2014-Oct-23 11:01 052 16.1
2014-Oct-23 10:56 097 15.6
2014-Oct-23 10:49 130 15.0
2014-Oct-23 10:43 129 14.4
2014-Oct-23 10:37 062 13.9
2014-Oct-23 10:31 001 13.3
2014-Oct-23 10:25 006 13.3
2014-Oct-23 10:19 011 12.8
2014-Oct-23 10:13 12.2
2014-Oct-23 10:02 325 11.1
2014-Oct-23 09:57 343 11.1
2014-Oct-23 09:49 001 10.6
2014-Oct-23 09:43 001 10.0
2014-Oct-23 09:38 012 9.4
2014-Oct-23 09:31 045 9.4
2014-Oct-23 09:26 045 8.9
2014-Oct-23 09:19 8.9
2014-Oct-23 09:13 045 8.3
2014-Oct-23 09:07 045 8.3
2014-Oct-23 09:01 078 8.3
2014-Oct-23 08:51 7.2
2014-Oct-23 08:43 6.7
2014-Oct-23 08:39 6.7
2014-Oct-23 08:31 045 6.7
2014-Oct-23 08:26 117 6.1
2014-Oct-23 08:19 149 6.1
2014-Oct-23 08:14 160 5.6
2014-Oct-23 08:07 5.0
2014-Oct-23 08:02 5.0
2014-Oct-23 07:56 045 5.0
2014-Oct-23 07:50 045 5.0
2014-Oct-23 07:43 5.0
2014-Oct-23 07:37 5.0
2014-Oct-23 07:32 257 5.0
2014-Oct-23 07:25 272 5.0
2014-Oct-23 07:19 276 4.4
2014-Oct-23 07:13 4.4
2014-Oct-23 07:07 135 4.4
2014-Oct-23 07:02 135 4.4
2014-Oct-23 06:56 135 4.4
2014-Oct-23 06:49 181 4.4
2014-Oct-23 06:43 185 4.4
2014-Oct-23 06:38 4.4
2014-Oct-23 06:31 4.4
2014-Oct-23 06:26 5.0
2014-Oct-23 06:19 5.0
2014-Oct-23 06:13 045 5.0
2014-Oct-23 06:08 5.0
2014-Oct-23 06:01 5.0
2014-Oct-23 05:57 045 5.0
2014-Oct-23 05:51 5.0
2014-Oct-23 05:43 045 5.0
2014-Oct-23 05:31 5.0
2014-Oct-23 05:19 5.0
2014-Oct-23 05:14 5.0
2014-Oct-23 05:07 5.0
2014-Oct-23 04:55 181 5.0
2014-Oct-23 04:50 175 5.0
2014-Oct-23 04:43 153 5.0
2014-Oct-23 04:37 119 5.0
2014-Oct-23 04:32 244 5.0
2014-Oct-23 04:26 256 5.0
2014-Oct-23 04:19 001 5.0
2014-Oct-23 04:14 154 5.0
2014-Oct-23 04:08 135 5.0
2014-Oct-23 03:55 172 5.6
2014-Oct-23 03:49 5.6
2014-Oct-23 03:38 181 5.6
2014-Oct-23 03:25 5.6
2014-Oct-23 03:20 5.6
2014-Oct-23 03:13 176 5.6
2014-Oct-23 03:07 181 5.6
2014-Oct-23 03:01 210 5.6
2014-Oct-23 02:56 233 0 gusting 1 5.6
2014-Oct-23 02:50 198 5.6
2014-Oct-23 02:44 148 5.6
2014-Oct-23 02:31 135 5.6
2014-Oct-23 02:25 135 6.1
2014-Oct-23 02:19 090 6.1
2014-Oct-23 02:13 090 6.1
2014-Oct-23 02:07 181 6.1
2014-Oct-23 02:02 181 6.1
2014-Oct-23 01:56 181 6.1
2014-Oct-23 01:50 001 6.1
2014-Oct-23 01:43 001 6.1
2014-Oct-23 01:37 001 6.7
2014-Oct-23 01:31 6.7
2014-Oct-23 01:25 158 6.7
2014-Oct-23 01:20 196 6.7
2014-Oct-23 01:13 178 6.7
2014-Oct-23 01:10 141 6.7
2014-Oct-23 01:02 169 6.7
2014-Oct-23 00:55 181 6.7
2014-Oct-23 00:49 6.7
2014-Oct-23 00:43 6.7
2014-Oct-23 00:37 090 6.7
2014-Oct-23 00:32 090 7.2
2014-Oct-23 00:26 226 7.2
2014-Oct-23 00:13 208 7.2
2014-Oct-23 00:08 7.2
2014-Oct-23 00:02 7.2
2014-Oct-22 23:55 7.8
2014-Oct-22 23:49 192 7.8
2014-Oct-22 23:43 177 7.8
2014-Oct-22 23:37 178 1 gusting 2 7.8
2014-Oct-22 23:32 182 0 gusting 1 7.8
2014-Oct-22 23:26 181 7.8
2014-Oct-22 23:19 161 7.8
2014-Oct-22 23:13 096 7.8
2014-Oct-22 23:07 115 8.3
2014-Oct-22 23:02 178 8.3
2014-Oct-22 22:55 191 0 gusting 2 8.3
2014-Oct-22 22:49 209 8.3
2014-Oct-22 22:44 214 0 gusting 2 8.3
2014-Oct-22 22:38 191 8.9
2014-Oct-22 22:32 181 8.9
2014-Oct-22 22:26 181 8.9
2014-Oct-22 22:20 166 8.9
2014-Oct-22 22:13 118 9.4
2014-Oct-22 22:07 090 9.4
2014-Oct-22 22:01 189 9.4
2014-Oct-22 21:55 181 9.4
2014-Oct-22 21:50 183 9.4
2014-Oct-22 21:43 183 9.4
2014-Oct-22 21:37 184 1 gusting 3 9.4
2014-Oct-22 21:31 354 9.4
2014-Oct-22 21:20 220 10.0
2014-Oct-22 21:13 203 0 gusting 2 10.0
2014-Oct-22 21:07 217 0 gusting 2 10.6
2014-Oct-22 21:03 198 0 gusting 2 10.6
2014-Oct-22 20:56 161 10.6
2014-Oct-22 20:50 177 10.6
2014-Oct-22 20:43 195 10.6
2014-Oct-22 20:37 181 11.1
2014-Oct-22 20:31 181 1 gusting 3 11.1
2014-Oct-22 20:26 186 0 gusting 3 11.1
2014-Oct-22 20:19 179 11.1
2014-Oct-22 20:13 169 11.7
2014-Oct-22 20:08 184 0 gusting 2 11.7
2014-Oct-22 20:02 190 0 gusting 2 11.7